Time,TemperatureF,DewpointF,PressureIn,WindDirection,WindDirectionDegrees,WindSpeedMPH,WindSpeedGustMPH,Humidity,HourlyPrecipIn,Conditions,Clouds,dailyrainin,SoftwareType,DateUTC
2013-03-29 00:02:00,50.0,48.0,-100.00,WNW,282,0.0,-999.0,93,0.00,,,-99.99,,2013-03-29 07:02:00,
2013-03-29 00:12:00,50.0,48.0,-100.00,WNW,282,0.0,-999.0,93,0.00,,,-99.99,,2013-03-29 07:12:00,
2013-03-29 00:22:00,50.0,48.0,-100.00,WNW,282,0.0,-999.0,93,0.00,,,-99.99,,2013-03-29 07:22:00,
2013-03-29 00:30:00,49.0,47.0,-100.00,SW,229,0.0,-999.0,93,0.00,,,-99.99,,2013-03-29 07:30:00,
2013-03-29 00:52:00,49.0,47.0,-100.00,SW,229,0.0,-999.0,93,0.00,,,-99.99,,2013-03-29 07:52:00,
2013-03-29 01:02:00,49.0,47.0,-100.00,SW,229,0.0,-999.0,93,0.00,,,-99.99,,2013-03-29 08:02:00,
2013-03-29 01:12:00,49.0,47.0,-100.00,SW,229,0.0,-999.0,93,0.00,,,-99.99,,2013-03-29 08:12:00,
2013-03-29 01:22:00,49.0,47.0,-100.00,SW,229,0.0,-999.0,93,0.00,,,-99.99,,2013-03-29 08:22:00,
2013-03-29 01:30:00,49.0,48.0,-100.00,SW,225,0.0,-999.0,94,0.00,,,-99.99,,2013-03-29 08:30:00,
2013-03-29 01:53:00,49.0,48.0,-100.00,SW,225,0.0,-999.0,94,0.00,,,-99.99,,2013-03-29 08:53:00,
2013-03-29 02:02:00,49.0,48.0,-100.00,SW,225,0.0,-999.0,94,0.00,,,-99.99,,2013-03-29 09:02:00,
2013-03-29 02:12:00,49.0,48.0,-100.00,SW,225,0.0,-999.0,94,0.00,,,-99.99,,2013-03-29 09:12:00,
2013-03-29 02:22:00,49.0,48.0,-100.00,SW,225,0.0,-999.0,94,0.00,,,-99.99,,2013-03-29 09:22:00,
2013-03-29 02:30:00,49.0,48.0,-100.00,West,269,0.0,-999.0,94,0.00,,,-99.99,,2013-03-29 09:30:00,
2013-03-29 02:52:00,49.0,48.0,-100.00,West,269,0.0,-999.0,94,0.00,,,-99.99,,2013-03-29 09:52:00,
2013-03-29 03:02:00,49.0,48.0,-100.00,West,269,0.0,-999.0,94,0.00,,,-99.99,,2013-03-29 10:02:00,
2013-03-29 03:12:00,49.0,48.0,-100.00,West,269,0.0,-999.0,94,0.00,,,-99.99,,2013-03-29 10:12:00,
2013-03-29 03:22:00,49.0,48.0,-100.00,West,269,0.0,-999.0,94,0.00,,,-99.99,,2013-03-29 10:22:00,
2013-03-29 03:30:00,50.0,48.0,-100.00,NNE,12,1.0,-999.0,95,0.00,,,-99.99,,2013-03-29 10:30:00,
2013-03-29 03:53:00,50.0,48.0,-100.00,NNE,12,1.0,-999.0,95,0.00,,,-99.99,,2013-03-29 10:53:00,
2013-03-29 04:03:00,50.0,48.0,-100.00,NNE,12,1.0,-999.0,95,0.00,,,-99.99,,2013-03-29 11:03:00,
2013-03-29 04:12:00,50.0,48.0,-100.00,NNE,12,1.0,-999.0,95,0.00,,,-99.99,,2013-03-29 11:12:00,
2013-03-29 04:23:00,50.0,48.0,-100.00,NNE,12,1.0,-999.0,95,0.00,,,-99.99,,2013-03-29 11:23:00,
2013-03-29 04:30:00,50.0,48.0,-100.00,North,353,2.0,-999.0,95,0.00,,,-99.99,,2013-03-29 11:30:00,
2013-03-29 04:52:00,50.0,48.0,-100.00,North,353,2.0,-999.0,95,0.00,,,-99.99,,2013-03-29 11:52:00,
2013-03-29 05:02:00,50.0,48.0,-100.00,North,353,2.0,-999.0,95,0.00,,,-99.99,,2013-03-29 12:02:00,
2013-03-29 05:12:00,50.0,48.0,-100.00,North,353,2.0,-999.0,95,0.00,,,-99.99,,2013-03-29 12:12:00,
2013-03-29 05:22:00,50.0,48.0,-100.00,North,353,2.0,-999.0,95,0.00,,,-99.99,,2013-03-29 12:22:00,
2013-03-29 05:30:00,50.0,48.0,-100.00,WNW,299,0.0,-999.0,96,0.00,,,-99.99,,2013-03-29 12:30:00,
2013-03-29 05:53:00,50.0,48.0,-100.00,WNW,299,0.0,-999.0,96,0.00,,,-99.99,,2013-03-29 12:53:00,
2013-03-29 06:02:00,50.0,48.0,-100.00,WNW,299,0.0,-999.0,96,0.00,,,-99.99,,2013-03-29 13:02:00,
2013-03-29 06:12:00,50.0,48.0,-100.00,WNW,299,0.0,-999.0,96,0.00,,,-99.99,,2013-03-29 13:12:00,
2013-03-29 06:22:00,50.0,48.0,-100.00,WNW,299,0.0,-999.0,96,0.00,,,-99.99,,2013-03-29 13:22:00,
2013-03-29 06:30:00,49.0,48.0,-100.00,SW,234,0.0,-999.0,96,0.00,,,-99.99,,2013-03-29 13:30:00,
2013-03-29 06:53:00,49.0,48.0,-100.00,SW,234,0.0,-999.0,96,0.00,,,-99.99,,2013-03-29 13:53:00,
2013-03-29 07:02:00,49.0,48.0,-100.00,SW,234,0.0,-999.0,96,0.00,,,-99.99,,2013-03-29 14:02:00,
2013-03-29 07:12:00,49.0,48.0,-100.00,SW,234,0.0,-999.0,96,0.00,,,-99.99,,2013-03-29 14:12:00,
2013-03-29 07:22:00,49.0,48.0,-100.00,SW,234,0.0,-999.0,96,0.00,,,-99.99,,2013-03-29 14:22:00,
2013-03-29 07:30:00,49.0,48.0,-100.00,WSW,250,0.0,-999.0,96,0.00,,,-99.99,,2013-03-29 14:30:00,
2013-03-29 07:52:00,49.0,48.0,-100.00,WSW,250,0.0,-999.0,96,0.00,,,-99.99,,2013-03-29 14:52:00,
2013-03-29 08:02:00,49.0,48.0,-100.00,WSW,250,0.0,-999.0,96,0.00,,,-99.99,,2013-03-29 15:02:00,
2013-03-29 08:12:00,49.0,48.0,-100.00,WSW,250,0.0,-999.0,96,0.00,,,-99.99,,2013-03-29 15:12:00,
2013-03-29 08:22:00,49.0,48.0,-100.00,WSW,250,0.0,-999.0,96,0.00,,,-99.99,,2013-03-29 15:22:00,
2013-03-29 08:30:00,50.0,49.0,-100.00,North,10,1.0,-999.0,96,0.00,,,-99.99,,2013-03-29 15:30:00,
2013-03-29 08:53:00,50.0,49.0,-100.00,North,10,1.0,-999.0,96,0.00,,,-99.99,,2013-03-29 15:53:00,
2013-03-29 09:03:00,50.0,49.0,-100.00,North,10,1.0,-999.0,96,0.00,,,-99.99,,2013-03-29 16:03:00,
2013-03-29 09:12:00,50.0,49.0,-100.00,North,10,1.0,-999.0,96,0.00,,,-99.99,,2013-03-29 16:12:00,
2013-03-29 09:23:00,50.0,49.0,-100.00,North,10,1.0,-999.0,96,0.00,,,-99.99,,2013-03-29 16:23:00,
2013-03-29 09:30:00,51.0,49.0,-100.00,North,11,1.0,-999.0,95,0.00,,,-99.99,,2013-03-29 16:30:00,
2013-03-29 09:53:00,51.0,49.0,-100.00,North,11,1.0,-999.0,95,0.00,,,-99.99,,2013-03-29 16:53:00,
2013-03-29 10:03:00,51.0,49.0,-100.00,North,11,1.0,-999.0,95,0.00,,,-99.99,,2013-03-29 17:03:00,
2013-03-29 10:12:00,51.0,49.0,-100.00,North,11,1.0,-999.0,95,0.00,,,-99.99,,2013-03-29 17:12:00,
2013-03-29 10:22:00,51.0,49.0,-100.00,North,11,1.0,-999.0,95,0.00,,,-99.99,,2013-03-29 17:22:00,
2013-03-29 10:30:00,54.0,52.0,-100.00,NNE,29,1.0,-999.0,91,0.01,,,-99.99,,2013-03-29 17:30:00,
2013-03-29 10:52:00,54.0,52.0,-100.00,NNE,29,1.0,-999.0,91,0.01,,,-99.99,,2013-03-29 17:52:00,
2013-03-29 11:02:00,54.0,52.0,-100.00,NNE,29,1.0,-999.0,91,0.01,,,-99.99,,2013-03-29 18:02:00,
2013-03-29 11:12:00,54.0,52.0,-100.00,NNE,29,1.0,-999.0,91,0.01,,,-99.99,,2013-03-29 18:12:00,
2013-03-29 11:22:00,54.0,52.0,-100.00,NNE,29,1.0,-999.0,91,0.01,,,-99.99,,2013-03-29 18:22:00,
2013-03-29 11:30:00,55.0,51.0,-100.00,NNE,16,5.0,-999.0,85,0.00,,,-99.99,,2013-03-29 18:30:00,
2013-03-29 11:52:00,55.0,51.0,-100.00,NNE,16,5.0,-999.0,85,0.00,,,-99.99,,2013-03-29 18:52:00,
2013-03-29 12:02:00,55.0,51.0,-100.00,NNE,16,5.0,-999.0,85,0.00,,,-99.99,,2013-03-29 19:02:00,
2013-03-29 12:12:00,55.0,51.0,-100.00,NNE,16,5.0,-999.0,85,0.00,,,-99.99,,2013-03-29 19:12:00,
2013-03-29 12:22:00,55.0,51.0,-100.00,NNE,16,5.0,-999.0,85,0.00,,,-99.99,,2013-03-29 19:22:00,
2013-03-29 12:52:00,55.0,50.0,-100.00,NNE,16,6.0,-999.0,84,0.00,,,-99.99,,2013-03-29 19:52:00,
2013-03-29 13:52:00,55.0,50.0,-100.00,North,8,5.0,-999.0,83,0.00,,,-99.99,,2013-03-29 20:52:00,
2013-03-29 15:53:00,54.0,49.0,-100.00,North,4,5.0,-999.0,82,0.00,,,-99.99,,2013-03-29 22:53:00,
2013-03-29 16:52:00,54.0,49.0,-100.00,North,4,4.0,-999.0,83,0.00,,,-99.99,,2013-03-29 23:52:00,
2013-03-29 17:53:00,53.0,48.0,-100.00,NNE,12,5.0,-999.0,84,0.00,,,-99.99,,2013-03-30 00:53:00,
2013-03-29 18:30:00,52.0,48.0,-100.00,North,8,6.0,-999.0,86,0.00,,,-99.99,,2013-03-30 01:30:00,
2013-03-29 18:53:00,52.0,48.0,-100.00,North,8,6.0,-999.0,86,0.00,,,-99.99,,2013-03-30 01:53:00,
2013-03-29 19:02:00,52.0,48.0,-100.00,North,8,6.0,-999.0,86,0.00,,,-99.99,,2013-03-30 02:02:00,
2013-03-29 19:12:00,52.0,48.0,-100.00,North,8,6.0,-999.0,86,0.00,,,-99.99,,2013-03-30 02:12:00,
2013-03-29 19:22:00,52.0,48.0,-100.00,North,8,6.0,-999.0,86,0.00,,,-99.99,,2013-03-30 02:22:00,
2013-03-29 19:30:00,52.0,48.0,-100.00,NW,322,2.0,-999.0,88,0.00,,,-99.99,,2013-03-30 02:30:00,
2013-03-29 19:53:00,52.0,48.0,-100.00,NW,322,2.0,-999.0,88,0.00,,,-99.99,,2013-03-30 02:53:00,
2013-03-29 20:02:00,52.0,48.0,-100.00,NW,322,2.0,-999.0,88,0.00,,,-99.99,,2013-03-30 03:02:00,
2013-03-29 20:12:00,52.0,48.0,-100.00,NW,322,2.0,-999.0,88,0.00,,,-99.99,,2013-03-30 03:12:00,
2013-03-29 20:21:00,52.0,48.0,-100.00,NW,322,2.0,-999.0,88,0.00,,,-99.99,,2013-03-30 03:21:00,
2013-03-29 20:30:00,51.0,48.0,-100.00,North,3,4.0,-999.0,90,0.00,,,-99.99,,2013-03-30 03:30:00,
2013-03-29 20:53:00,51.0,48.0,-100.00,North,3,4.0,-999.0,90,0.00,,,-99.99,,2013-03-30 03:53:00,
2013-03-29 21:02:00,51.0,48.0,-100.00,North,3,4.0,-999.0,90,0.00,,,-99.99,,2013-03-30 04:02:00,
2013-03-29 21:12:00,51.0,48.0,-100.00,North,3,4.0,-999.0,90,0.00,,,-99.99,,2013-03-30 04:12:00,
2013-03-29 21:23:00,51.0,48.0,-100.00,North,3,4.0,-999.0,90,0.00,,,-99.99,,2013-03-30 04:23:00,
2013-03-29 21:30:00,50.0,48.0,-100.00,North,353,3.0,-999.0,92,0.00,,,-99.99,,2013-03-30 04:30:00,
2013-03-29 21:53:00,50.0,48.0,-100.00,North,353,3.0,-999.0,92,0.00,,,-99.99,,2013-03-30 04:53:00,
2013-03-29 22:02:00,50.0,48.0,-100.00,North,353,3.0,-999.0,92,0.00,,,-99.99,,2013-03-30 05:02:00,
2013-03-29 22:12:00,50.0,48.0,-100.00,North,353,3.0,-999.0,92,0.00,,,-99.99,,2013-03-30 05:12:00,
2013-03-29 22:22:00,50.0,48.0,-100.00,North,353,3.0,-999.0,92,0.00,,,-99.99,,2013-03-30 05:22:00,
2013-03-29 22:30:00,50.0,48.0,-100.00,NNW,343,2.0,-999.0,93,0.00,,,-99.99,,2013-03-30 05:30:00,
2013-03-29 22:52:00,50.0,48.0,-100.00,NNW,343,2.0,-999.0,93,0.00,,,-99.99,,2013-03-30 05:52:00,
2013-03-29 23:02:00,50.0,48.0,-100.00,NNW,343,2.0,-999.0,93,0.00,,,-99.99,,2013-03-30 06:02:00,
2013-03-29 23:11:00,50.0,48.0,-100.00,NNW,343,2.0,-999.0,93,0.00,,,-99.99,,2013-03-30 06:11:00,
2013-03-29 23:22:00,50.0,48.0,-100.00,NNW,343,2.0,-999.0,93,0.00,,,-99.99,,2013-03-30 06:22:00,
2013-03-29 23:30:00,49.0,47.0,-100.00,NW,312,1.0,-999.0,93,0.00,,,-99.99,,2013-03-30 06:30:00,
2013-03-29 23:52:00,49.0,47.0,-100.00,NW,312,1.0,-999.0,93,0.00,,,-99.99,,2013-03-30 06:52:00,